Location: Czu?�w
(50.1404°N, 18.9919°E)
Time: 03:20:26
(UTC+00:00)

Radarsat Rocket - Pass Details

Date: 27 October 2020
Orbit: 933 x 1492 km, 100.6° (Epoch: 27 November)

Event Time Altitude Azimuth Distance (km) Brightness Sun altitude
Rises 15:57:33 0° 168° (SSE) 3,733 7.1 -5.3°
Reaches altitude 10° 16:00:06 10° 171° (S) 2,736 6.4 -5.6°
Maximum altitude 16:06:05 68° 254° (WSW) 1,017 4.4 -6.6°
Drops below altitude 10° 16:11:54 10° 338° (NNW) 2,656 6.4 -7.5°
Sets 16:14:21 0° 341° (NNW) 3,617 7.1 -7.9°
